Overview Statistics Trail Chart Weather Telemetry Raw packets
 

This is the latest recevied weather packets stored in our database for station/object N7ZEF. If no packets are shown the sender has not sent any weather packets the latest 10 day(s).

<< 23 24 25 26 27 28 29 >>
Time Temp. Humidity Pressure Rain* Wind** Luminosity Snow
1777819797 12.22° C 30% 1020.1 hPa 0 mm - - -
1777819195 12.22° C 31% 1020.2 hPa 0 mm - - -
1777818594 11.67° C 33% 1020.1 hPa 0 mm - - -
1777817992 11.11° C 34% 1020.2 hPa 0 mm - - -
1777817391 10.56° C 36% 1020.3 hPa 0 mm - - -
1777816790 10° C 37% 1020.2 hPa 0 mm - - -
1777816188 8.89° C 38% 1020.2 hPa 0 mm - - -
1777815587 8.33° C 39% 1020.2 hPa 0 mm - - -
1777814985 7.78° C 40% 1020.2 hPa 0 mm - - -
1777814384 7.22° C 42% 1019.9 hPa 0 mm - - -
1777813783 6.67° C 43% 1019.7 hPa 0 mm - - -
1777813181 6.11° C 44% 1019.7 hPa 0 mm - - -
1777812580 5.56° C 45% 1019.6 hPa 0 mm - - -
1777811979 5.56° C 44% 1019.4 hPa 0 mm - - -
1777811377 5.56° C 43% 1019.3 hPa 0 mm - - -
1777810776 5.56° C 43% 1019.3 hPa 0 mm - - -
1777810174 5.56° C 43% 1019 hPa 0 mm - - -
1777809573 5° C 44% 1019 hPa 0 mm - - -
1777808972 5° C 45% 1019 hPa 0 mm - - -
1777808370 5° C 45% 1019 hPa 0 mm - - -
1777807769 5.56° C 44% 1019.2 hPa 0 mm - - -
1777807168 5.56° C 44% 1019.2 hPa 0 mm - - -
1777806566 5.56° C 44% 1019.2 hPa 0 mm - - -
1777805965 5.56° C 43% 1019.3 hPa 0 mm - - -
1777805363 5.56° C 43% 1019.4 hPa 0 mm - - -

* Rain latest hour (hover to see other rain measurements)
** Current wind speed in m/s (hover to see current wind gust speed)